Time,TemperatureF,DewpointF,PressureIn,WindDirection,WindDirectionDegrees,WindSpeedMPH,WindSpeedGustMPH,Humidity,HourlyPrecipIn,Conditions,Clouds,dailyrainin,SoftwareType,DateUTC
2013-01-09 00:00:00,31.6,24.0,0.00,North,0,0.0,0.0,73,0.00,,,0.00,WUHU21623XXSP,2013-01-09 05:00:00,
2013-01-09 00:03:00,31.6,24.0,0.00,North,0,0.0,0.0,73,0.00,,,0.00,WUHU21623XXSP,2013-01-09 05:03:00,
2013-01-09 00:08:00,31.3,23.9,0.00,North,0,0.0,0.0,74,0.00,,,0.00,WUHU21623XXSP,2013-01-09 05:08:00,
2013-01-09 00:13:00,31.3,23.9,0.00,North,0,0.0,0.0,74,0.00,,,0.00,WUHU21623XXSP,2013-01-09 05:13:00,
2013-01-09 00:18:00,31.3,23.9,0.00,North,0,0.0,0.0,74,0.00,,,0.00,WUHU21623XXSP,2013-01-09 05:18:00,
2013-01-09 00:23:00,31.1,23.8,0.00,North,0,0.0,0.0,74,0.00,,,0.00,WUHU21623XXSP,2013-01-09 05:23:00,
2013-01-09 00:28:00,30.9,23.8,0.00,North,0,0.0,0.0,74,0.00,,,0.00,WUHU21623XXSP,2013-01-09 05:28:00,
2013-01-09 00:33:00,30.7,23.7,0.00,North,0,0.0,0.0,75,0.00,,,0.00,WUHU21623XXSP,2013-01-09 05:33:00,
2013-01-09 00:38:00,30.7,23.7,0.00,North,0,0.0,0.0,75,0.00,,,0.00,WUHU21623XXSP,2013-01-09 05:38:00,
2013-01-09 00:43:00,30.7,23.7,0.00,North,0,0.0,0.0,75,0.00,,,0.00,WUHU21623XXSP,2013-01-09 05:43:00,
2013-01-09 00:48:00,30.6,23.5,0.00,North,0,0.0,0.0,75,0.00,,,0.00,WUHU21623XXSP,2013-01-09 05:48:00,
2013-01-09 00:53:00,30.4,23.5,0.00,North,0,0.0,0.0,75,0.00,,,0.00,WUHU21623XXSP,2013-01-09 05:53:00,
2013-01-09 00:58:00,30.4,23.4,0.00,North,0,0.0,0.0,75,0.00,,,0.00,WUHU21623XXSP,2013-01-09 05:58:00,
2013-01-09 01:03:00,30.4,23.4,0.00,North,0,0.0,0.0,75,0.00,,,0.00,WUHU21623XXSP,2013-01-09 06:03:00,
2013-01-09 01:08:00,30.4,23.4,0.00,North,0,0.0,0.0,75,0.00,,,0.00,WUHU21623XXSP,2013-01-09 06:08:00,
2013-01-09 01:13:00,30.4,23.4,0.00,North,0,0.0,0.0,75,0.00,,,0.00,WUHU21623XXSP,2013-01-09 06:13:00,
2013-01-09 01:18:00,30.4,23.4,0.00,North,0,0.0,0.0,75,0.00,,,0.00,WUHU21623XXSP,2013-01-09 06:18:00,
2013-01-09 01:23:00,30.4,23.4,0.00,North,0,0.0,0.0,75,0.00,,,0.00,WUHU21623XXSP,2013-01-09 06:23:00,
2013-01-09 01:28:00,30.4,23.4,0.00,North,0,0.0,0.0,75,0.00,,,0.00,WUHU21623XXSP,2013-01-09 06:28:00,
2013-01-09 01:33:00,30.4,23.4,0.00,North,0,0.0,0.0,75,0.00,,,0.00,WUHU21623XXSP,2013-01-09 06:33:00,
2013-01-09 01:38:00,30.2,23.4,0.00,North,0,0.0,0.0,75,0.00,,,0.00,WUHU21623XXSP,2013-01-09 06:38:00,
2013-01-09 01:43:00,30.4,23.4,0.00,North,0,0.0,0.0,75,0.00,,,0.00,WUHU21623XXSP,2013-01-09 06:43:00,
2013-01-09 01:48:00,30.2,23.2,0.00,North,0,0.0,0.0,75,0.00,,,0.00,WUHU21623XXSP,2013-01-09 06:48:00,
2013-01-09 01:53:00,30.2,23.2,0.00,North,0,0.0,0.0,75,0.00,,,0.00,WUHU21623XXSP,2013-01-09 06:53:00,
2013-01-09 01:58:00,30.0,23.0,0.00,North,0,0.0,0.0,75,0.00,,,0.00,WUHU21623XXSP,2013-01-09 06:58:00,
2013-01-09 02:03:00,30.0,23.0,0.00,North,0,0.0,0.0,75,0.00,,,0.00,WUHU21623XXSP,2013-01-09 07:03:00,
2013-01-09 02:08:00,30.2,23.2,0.00,North,0,0.0,0.0,75,0.00,,,0.00,WUHU21623XXSP,2013-01-09 07:08:00,
2013-01-09 02:13:00,30.0,23.0,0.00,North,0,0.0,0.0,75,0.00,,,0.00,WUHU21623XXSP,2013-01-09 07:13:00,
2013-01-09 02:18:00,30.0,23.0,0.00,North,0,0.0,0.0,75,0.00,,,0.00,WUHU21623XXSP,2013-01-09 07:18:00,
2013-01-09 02:23:00,30.0,23.0,0.00,North,0,0.0,0.0,75,0.00,,,0.00,WUHU21623XXSP,2013-01-09 07:23:00,
2013-01-09 02:28:00,30.0,23.3,0.00,North,0,0.0,0.0,76,0.00,,,0.00,WUHU21623XXSP,2013-01-09 07:28:00,
2013-01-09 02:33:00,30.0,23.3,0.00,North,0,0.0,0.0,76,0.00,,,0.00,WUHU21623XXSP,2013-01-09 07:33:00,
2013-01-09 02:38:00,30.0,23.3,0.00,North,0,0.0,0.0,76,0.00,,,0.00,WUHU21623XXSP,2013-01-09 07:38:00,
2013-01-09 02:43:00,30.0,23.3,0.00,North,0,0.0,0.0,76,0.00,,,0.00,WUHU21623XXSP,2013-01-09 07:43:00,
2013-01-09 02:48:00,30.0,23.3,0.00,North,0,0.0,0.0,76,0.00,,,0.00,WUHU21623XXSP,2013-01-09 07:48:00,
2013-01-09 02:53:00,30.0,23.3,0.00,North,0,0.0,0.0,76,0.00,,,0.00,WUHU21623XXSP,2013-01-09 07:53:00,
2013-01-09 02:58:00,30.0,23.3,0.00,North,0,0.0,0.0,76,0.00,,,0.00,WUHU21623XXSP,2013-01-09 07:58:00,
2013-01-09 03:03:00,30.0,23.3,0.00,North,0,0.0,0.0,76,0.00,,,0.00,WUHU21623XXSP,2013-01-09 08:03:00,
2013-01-09 03:08:00,29.8,23.5,0.00,North,0,0.0,0.0,77,0.00,,,0.00,WUHU21623XXSP,2013-01-09 08:08:00,
2013-01-09 03:13:00,30.0,23.6,0.00,North,0,0.0,0.0,77,0.00,,,0.00,WUHU21623XXSP,2013-01-09 08:13:00,
2013-01-09 03:18:00,30.0,23.6,0.00,North,0,0.0,0.0,77,0.00,,,0.00,WUHU21623XXSP,2013-01-09 08:18:00,
2013-01-09 03:23:00,30.0,23.6,0.00,North,0,0.0,0.0,77,0.00,,,0.00,WUHU21623XXSP,2013-01-09 08:23:00,
2013-01-09 03:28:00,30.0,23.6,0.00,North,0,0.0,0.0,77,0.00,,,0.00,WUHU21623XXSP,2013-01-09 08:28:00,
2013-01-09 03:33:00,30.0,23.6,0.00,North,0,0.0,0.0,77,0.00,,,0.00,WUHU21623XXSP,2013-01-09 08:33:00,
2013-01-09 03:38:00,30.0,23.6,0.00,North,0,0.0,0.0,77,0.00,,,0.00,WUHU21623XXSP,2013-01-09 08:38:00,
2013-01-09 03:43:00,30.0,23.6,0.00,North,0,0.0,0.0,77,0.00,,,0.00,WUHU21623XXSP,2013-01-09 08:43:00,
2013-01-09 03:48:00,30.0,23.6,0.00,North,0,0.0,0.0,77,0.00,,,0.00,WUHU21623XXSP,2013-01-09 08:48:00,
2013-01-09 03:53:00,30.0,23.6,0.00,North,0,0.0,0.0,77,0.00,,,0.00,WUHU21623XXSP,2013-01-09 08:53:00,
2013-01-09 03:58:00,29.8,23.5,0.00,North,0,0.0,0.0,77,0.00,,,0.00,WUHU21623XXSP,2013-01-09 08:58:00,
2013-01-09 04:03:00,29.8,23.5,0.00,North,0,0.0,0.0,77,0.00,,,0.00,WUHU21623XXSP,2013-01-09 09:03:00,
2013-01-09 04:08:00,29.8,23.5,0.00,North,0,0.0,0.0,77,0.00,,,0.00,WUHU21623XXSP,2013-01-09 09:08:00,
2013-01-09 04:13:00,29.8,23.5,0.00,North,0,0.0,0.0,77,0.00,,,0.00,WUHU21623XXSP,2013-01-09 09:13:00,
2013-01-09 04:18:00,29.8,23.5,0.00,North,0,0.0,0.0,77,0.00,,,0.00,WUHU21623XXSP,2013-01-09 09:18:00,
2013-01-09 04:23:00,29.7,23.3,0.00,North,0,0.0,0.0,77,0.00,,,0.00,WUHU21623XXSP,2013-01-09 09:23:00,
2013-01-09 04:28:00,29.5,23.1,0.00,North,0,0.0,0.0,77,0.00,,,0.00,WUHU21623XXSP,2013-01-09 09:28:00,
2013-01-09 04:33:00,29.5,23.1,0.00,North,0,0.0,0.0,77,0.00,,,0.00,WUHU21623XXSP,2013-01-09 09:33:00,
2013-01-09 04:38:00,29.5,23.1,0.00,North,0,0.0,0.0,77,0.00,,,0.00,WUHU21623XXSP,2013-01-09 09:38:00,
2013-01-09 04:43:00,29.5,23.1,0.00,North,0,0.0,0.0,77,0.00,,,0.00,WUHU21623XXSP,2013-01-09 09:43:00,
2013-01-09 04:48:00,29.5,23.1,0.00,North,0,0.0,0.0,77,0.00,,,0.00,WUHU21623XXSP,2013-01-09 09:48:00,
2013-01-09 04:53:00,29.3,23.3,0.00,North,0,0.0,0.0,78,0.00,,,0.00,WUHU21623XXSP,2013-01-09 09:53:00,
2013-01-09 04:58:00,29.3,23.3,0.00,North,0,0.0,0.0,78,0.00,,,0.00,WUHU21623XXSP,2013-01-09 09:58:00,
2013-01-09 05:03:00,29.3,23.3,0.00,North,0,0.0,0.0,78,0.00,,,0.00,WUHU21623XXSP,2013-01-09 10:03:00,
2013-01-09 05:08:00,29.1,23.1,0.00,North,0,0.0,0.0,78,0.00,,,0.00,WUHU21623XXSP,2013-01-09 10:08:00,
2013-01-09 05:13:00,29.3,23.3,0.00,North,0,0.0,0.0,78,0.00,,,0.00,WUHU21623XXSP,2013-01-09 10:13:00,
2013-01-09 05:18:00,29.3,23.3,0.00,North,0,0.0,0.0,78,0.00,,,0.00,WUHU21623XXSP,2013-01-09 10:18:00,
2013-01-09 05:23:00,29.1,23.1,0.00,North,0,0.0,0.0,78,0.00,,,0.00,WUHU21623XXSP,2013-01-09 10:23:00,
2013-01-09 05:28:00,29.1,23.1,0.00,North,0,0.0,0.0,78,0.00,,,0.00,WUHU21623XXSP,2013-01-09 10:28:00,
2013-01-09 05:33:00,29.1,23.1,0.00,North,0,0.0,0.0,78,0.00,,,0.00,WUHU21623XXSP,2013-01-09 10:33:00,
2013-01-09 05:38:00,29.1,23.1,0.00,North,0,0.0,0.0,78,0.00,,,0.00,WUHU21623XXSP,2013-01-09 10:38:00,
2013-01-09 05:43:00,29.1,23.1,0.00,North,0,0.0,0.0,78,0.00,,,0.00,WUHU21623XXSP,2013-01-09 10:43:00,
2013-01-09 05:48:00,29.1,23.1,0.00,North,0,0.0,0.0,78,0.00,,,0.00,WUHU21623XXSP,2013-01-09 10:48:00,
2013-01-09 05:53:00,28.9,22.9,0.00,North,0,0.0,0.0,78,0.00,,,0.00,WUHU21623XXSP,2013-01-09 10:53:00,
2013-01-09 05:58:00,28.9,22.9,0.00,North,0,0.0,0.0,78,0.00,,,0.00,WUHU21623XXSP,2013-01-09 10:58:00,
2013-01-09 06:03:00,28.9,22.9,0.00,North,0,0.0,0.0,78,0.00,,,0.00,WUHU21623XXSP,2013-01-09 11:03:00,
2013-01-09 06:08:00,28.8,23.0,0.00,North,0,0.0,0.0,79,0.00,,,0.00,WUHU21623XXSP,2013-01-09 11:08:00,
2013-01-09 06:13:00,28.8,23.0,0.00,North,0,0.0,0.0,79,0.00,,,0.00,WUHU21623XXSP,2013-01-09 11:13:00,
2013-01-09 06:18:00,28.8,23.0,0.00,North,0,0.0,0.0,79,0.00,,,0.00,WUHU21623XXSP,2013-01-09 11:18:00,
2013-01-09 06:23:00,28.8,23.0,0.00,North,0,0.0,0.0,79,0.00,,,0.00,WUHU21623XXSP,2013-01-09 11:23:00,
2013-01-09 06:28:00,28.8,23.0,0.00,North,0,0.0,0.0,79,0.00,,,0.00,WUHU21623XXSP,2013-01-09 11:28:00,
2013-01-09 06:33:00,28.8,23.0,0.00,North,0,0.0,0.0,79,0.00,,,0.00,WUHU21623XXSP,2013-01-09 11:33:00,
2013-01-09 06:38:00,28.8,23.0,0.00,North,0,0.0,0.0,79,0.00,,,0.00,WUHU21623XXSP,2013-01-09 11:38:00,
2013-01-09 06:43:00,28.8,23.0,0.00,North,0,0.0,0.0,79,0.00,,,0.00,WUHU21623XXSP,2013-01-09 11:43:00,
2013-01-09 06:48:00,28.6,22.9,0.00,North,0,0.0,0.0,79,0.00,,,0.00,WUHU21623XXSP,2013-01-09 11:48:00,
2013-01-09 06:53:00,28.8,23.0,0.00,North,0,0.0,0.0,79,0.00,,,0.00,WUHU21623XXSP,2013-01-09 11:53:00,
2013-01-09 06:58:00,28.6,22.9,0.00,North,0,0.0,0.0,79,0.00,,,0.00,WUHU21623XXSP,2013-01-09 11:58:00,
2013-01-09 07:03:00,28.6,22.9,0.00,North,0,0.0,0.0,79,0.00,,,0.00,WUHU21623XXSP,2013-01-09 12:03:00,
2013-01-09 07:08:00,28.6,22.9,0.00,North,0,0.0,0.0,79,0.00,,,0.00,WUHU21623XXSP,2013-01-09 12:08:00,
2013-01-09 07:13:00,28.6,22.9,0.00,North,0,0.0,0.0,79,0.00,,,0.00,WUHU21623XXSP,2013-01-09 12:13:00,
2013-01-09 07:18:00,28.6,22.9,0.00,North,0,0.0,0.0,79,0.00,,,0.00,WUHU21623XXSP,2013-01-09 12:18:00,
2013-01-09 07:23:00,28.6,22.9,0.00,North,0,0.0,0.0,79,0.00,,,0.00,WUHU21623XXSP,2013-01-09 12:23:00,
2013-01-09 07:28:00,28.6,22.9,0.00,North,0,0.0,0.0,79,0.00,,,0.00,WUHU21623XXSP,2013-01-09 12:28:00,
2013-01-09 07:33:00,28.6,22.9,0.00,North,0,0.0,0.0,79,0.00,,,0.00,WUHU21623XXSP,2013-01-09 12:33:00,
2013-01-09 07:38:00,28.6,22.9,0.00,North,0,0.0,0.0,79,0.00,,,0.00,WUHU21623XXSP,2013-01-09 12:38:00,
2013-01-09 07:43:00,28.6,22.9,0.00,North,0,0.0,0.0,79,0.00,,,0.00,WUHU21623XXSP,2013-01-09 12:43:00,
2013-01-09 07:48:00,28.6,22.9,0.00,North,0,0.0,0.0,79,0.00,,,0.00,WUHU21623XXSP,2013-01-09 12:48:00,
2013-01-09 07:53:00,28.6,22.9,0.00,North,0,0.0,0.0,79,0.00,,,0.00,WUHU21623XXSP,2013-01-09 12:53:00,
2013-01-09 07:58:00,28.8,23.0,0.00,North,0,0.0,0.0,79,0.00,,,0.00,WUHU21623XXSP,2013-01-09 12:58:00,
2013-01-09 08:03:00,28.8,23.0,0.00,North,0,0.0,0.0,79,0.00,,,0.00,WUHU21623XXSP,2013-01-09 13:03:00,
2013-01-09 08:08:00,28.9,23.2,0.00,North,0,0.0,0.0,79,0.00,,,0.00,WUHU21623XXSP,2013-01-09 13:08:00,
2013-01-09 08:13:00,29.1,23.4,0.00,North,0,0.0,0.0,79,0.00,,,0.00,WUHU21623XXSP,2013-01-09 13:13:00,
2013-01-09 08:18:00,29.1,23.7,0.00,North,0,0.0,0.0,80,0.00,,,0.00,WUHU21623XXSP,2013-01-09 13:18:00,
2013-01-09 08:23:00,29.7,24.3,0.00,North,0,0.0,0.0,80,0.00,,,0.00,WUHU21623XXSP,2013-01-09 13:23:00,
2013-01-09 08:28:00,29.8,24.4,0.00,North,0,0.0,0.0,80,0.00,,,0.00,WUHU21623XXSP,2013-01-09 13:28:00,
2013-01-09 08:33:00,30.0,24.9,0.00,North,0,0.0,0.0,81,0.00,,,0.00,WUHU21623XXSP,2013-01-09 13:33:00,
2013-01-09 08:38:00,30.6,25.4,0.00,North,0,0.0,0.0,81,0.00,,,0.00,WUHU21623XXSP,2013-01-09 13:38:00,
2013-01-09 08:43:00,30.9,25.6,0.00,North,0,0.0,0.0,81,0.00,,,0.00,WUHU21623XXSP,2013-01-09 13:43:00,
2013-01-09 08:48:00,31.3,26.2,0.00,North,0,0.0,0.0,81,0.00,,,0.00,WUHU21623XXSP,2013-01-09 13:48:00,
2013-01-09 08:53:00,31.8,27.0,0.00,North,0,0.0,0.0,82,0.00,,,0.00,WUHU21623XXSP,2013-01-09 13:53:00,
2013-01-09 08:58:00,32.2,27.3,0.00,North,0,0.0,0.0,82,0.00,,,0.00,WUHU21623XXSP,2013-01-09 13:58:00,
2013-01-09 09:03:00,32.5,27.7,0.00,North,0,0.0,0.0,82,0.00,,,0.00,WUHU21623XXSP,2013-01-09 14:03:00,
2013-01-09 09:08:00,33.1,28.1,0.00,North,0,0.0,0.0,82,0.00,,,0.00,WUHU21623XXSP,2013-01-09 14:08:00,
2013-01-09 09:13:00,33.6,28.6,0.00,North,0,0.0,0.0,82,0.00,,,0.00,WUHU21623XXSP,2013-01-09 14:13:00,
2013-01-09 09:18:00,34.3,29.6,0.00,North,0,0.0,0.0,83,0.00,,,0.00,WUHU21623XXSP,2013-01-09 14:18:00,
2013-01-09 09:23:00,35.2,30.0,0.00,North,0,0.0,0.0,83,0.00,,,0.00,WUHU21623XXSP,2013-01-09 14:23:00,
2013-01-09 09:28:00,36.0,31.2,0.00,North,0,0.0,0.0,83,0.00,,,0.00,WUHU21623XXSP,2013-01-09 14:28:00,
2013-01-09 09:33:00,36.9,32.1,0.00,North,0,0.0,0.0,83,0.00,,,0.00,WUHU21623XXSP,2013-01-09 14:33:00,
2013-01-09 09:38:00,37.9,33.2,0.00,North,0,0.0,0.0,83,0.00,,,0.00,WUHU21623XXSP,2013-01-09 14:38:00,
2013-01-09 09:43:00,38.5,33.8,0.00,North,0,0.0,0.0,83,0.00,,,0.00,WUHU21623XXSP,2013-01-09 14:43:00,
2013-01-09 09:48:00,39.2,34.5,0.00,North,0,0.0,0.0,83,0.00,,,0.00,WUHU21623XXSP,2013-01-09 14:48:00,
2013-01-09 09:53:00,40.3,35.5,0.00,North,0,0.0,0.0,83,0.00,,,0.00,WUHU21623XXSP,2013-01-09 14:53:00,
2013-01-09 09:58:00,40.8,35.7,0.00,North,0,0.0,0.0,82,0.00,,,0.00,WUHU21623XXSP,2013-01-09 14:58:00,
2013-01-09 10:03:00,41.5,36.4,0.00,North,0,0.0,0.0,82,0.00,,,0.00,WUHU21623XXSP,2013-01-09 15:03:00,
2013-01-09 10:08:00,42.4,37.0,0.00,North,0,0.0,0.0,81,0.00,,,0.00,WUHU21623XXSP,2013-01-09 15:08:00,
2013-01-09 10:13:00,43.0,37.5,0.00,North,0,0.0,0.0,81,0.00,,,0.00,WUHU21623XXSP,2013-01-09 15:13:00,
2013-01-09 10:18:00,43.5,38.1,0.00,North,0,0.0,0.0,81,0.00,,,0.00,WUHU21623XXSP,2013-01-09 15:18:00,
2013-01-09 10:23:00,44.8,39.0,0.00,North,0,0.0,0.0,80,0.00,,,0.00,WUHU21623XXSP,2013-01-09 15:23:00,
2013-01-09 10:28:00,45.5,39.4,0.00,North,0,0.0,0.0,79,0.00,,,0.00,WUHU21623XXSP,2013-01-09 15:28:00,
2013-01-09 10:33:00,46.2,40.1,0.00,North,0,0.0,0.0,79,0.00,,,0.00,WUHU21623XXSP,2013-01-09 15:33:00,
2013-01-09 10:38:00,46.9,40.8,0.00,North,0,0.0,0.0,79,0.00,,,0.00,WUHU21623XXSP,2013-01-09 15:38:00,
2013-01-09 10:43:00,47.8,41.6,0.00,North,0,0.0,0.0,79,0.00,,,0.00,WUHU21623XXSP,2013-01-09 15:43:00,
2013-01-09 10:48:00,48.6,41.9,0.00,North,0,0.0,0.0,78,0.00,,,0.00,WUHU21623XXSP,2013-01-09 15:48:00,
2013-01-09 10:53:00,48.7,41.8,0.00,North,0,0.0,0.0,77,0.00,,,0.00,WUHU21623XXSP,2013-01-09 15:53:00,
2013-01-09 10:58:00,49.1,42.5,0.00,North,0,0.0,0.0,78,0.00,,,0.00,WUHU21623XXSP,2013-01-09 15:58:00,
2013-01-09 11:03:00,49.6,42.7,0.00,North,0,0.0,0.0,77,0.00,,,0.00,WUHU21623XXSP,2013-01-09 16:03:00,
2013-01-09 11:08:00,50.2,43.2,0.00,North,0,0.0,0.0,77,0.00,,,0.00,WUHU21623XXSP,2013-01-09 16:08:00,
2013-01-09 11:13:00,50.7,43.4,0.00,North,0,0.0,0.0,76,0.00,,,0.00,WUHU21623XXSP,2013-01-09 16:13:00,
2013-01-09 11:18:00,51.3,44.0,0.00,North,0,0.0,0.0,76,0.00,,,0.00,WUHU21623XXSP,2013-01-09 16:18:00,
2013-01-09 11:23:00,52.0,44.3,0.00,North,0,0.0,0.0,75,0.00,,,0.00,WUHU21623XXSP,2013-01-09 16:23:00,
2013-01-09 11:28:00,52.3,44.7,0.00,North,0,0.0,0.0,75,0.00,,,0.00,WUHU21623XXSP,2013-01-09 16:28:00,
2013-01-09 11:33:00,52.5,44.8,0.00,North,0,0.0,0.0,75,0.00,,,0.00,WUHU21623XXSP,2013-01-09 16:33:00,
2013-01-09 11:38:00,52.9,44.8,0.00,North,0,0.0,0.0,74,0.00,,,0.00,WUHU21623XXSP,2013-01-09 16:38:00,
2013-01-09 11:43:00,53.1,45.0,0.00,North,0,0.0,0.0,74,0.00,,,0.00,WUHU21623XXSP,2013-01-09 16:43:00,
2013-01-09 11:48:00,53.4,45.3,0.00,North,0,0.0,0.0,74,0.00,,,0.00,WUHU21623XXSP,2013-01-09 16:48:00,
2013-01-09 11:53:00,54.0,45.8,0.00,North,0,0.0,0.0,74,0.00,,,0.00,WUHU21623XXSP,2013-01-09 16:53:00,
2013-01-09 11:58:00,54.3,45.8,0.00,North,0,0.0,0.0,73,0.00,,,0.00,WUHU21623XXSP,2013-01-09 16:58:00,
2013-01-09 12:03:00,54.7,45.8,0.00,North,0,0.0,0.0,72,0.00,,,0.00,WUHU21623XXSP,2013-01-09 17:03:00,
2013-01-09 12:08:00,55.0,46.2,0.00,North,0,0.0,0.0,72,0.00,,,0.00,WUHU21623XXSP,2013-01-09 17:08:00,
2013-01-09 12:13:00,55.2,46.4,0.00,North,0,0.0,0.0,72,0.00,,,0.00,WUHU21623XXSP,2013-01-09 17:13:00,
2013-01-09 12:18:00,55.8,46.5,0.00,North,0,0.0,0.0,71,0.00,,,0.00,WUHU21623XXSP,2013-01-09 17:18:00,
2013-01-09 12:23:00,55.8,46.5,0.00,North,0,0.0,0.0,71,0.00,,,0.00,WUHU21623XXSP,2013-01-09 17:23:00,
2013-01-09 12:28:00,55.9,46.7,0.00,North,0,0.0,0.0,71,0.00,,,0.00,WUHU21623XXSP,2013-01-09 17:28:00,
2013-01-09 12:33:00,55.9,46.3,0.00,North,0,0.0,0.0,70,0.00,,,0.00,WUHU21623XXSP,2013-01-09 17:33:00,
2013-01-09 12:38:00,55.9,46.3,0.00,North,0,0.0,0.0,70,0.00,,,0.00,WUHU21623XXSP,2013-01-09 17:38:00,
2013-01-09 12:43:00,55.9,46.3,0.00,North,0,0.0,0.0,70,0.00,,,0.00,WUHU21623XXSP,2013-01-09 17:43:00,
2013-01-09 12:48:00,56.1,46.5,0.00,North,0,0.0,0.0,70,0.00,,,0.00,WUHU21623XXSP,2013-01-09 17:48:00,
2013-01-09 12:53:00,56.1,46.5,0.00,North,0,0.0,0.0,70,0.00,,,0.00,WUHU21623XXSP,2013-01-09 17:53:00,
2013-01-09 12:58:00,56.1,46.5,0.00,North,0,0.0,0.0,70,0.00,,,0.00,WUHU21623XXSP,2013-01-09 17:58:00,
2013-01-09 13:03:00,56.3,46.5,0.00,North,0,0.0,0.0,70,0.00,,,0.00,WUHU21623XXSP,2013-01-09 18:03:00,
2013-01-09 13:08:00,56.5,46.7,0.00,North,0,0.0,0.0,70,0.00,,,0.00,WUHU21623XXSP,2013-01-09 18:08:00,
2013-01-09 13:13:00,56.7,47.0,0.00,North,0,0.0,0.0,70,0.00,,,0.00,WUHU21623XXSP,2013-01-09 18:13:00,
2013-01-09 13:18:00,56.8,47.2,0.00,North,0,0.0,0.0,70,0.00,,,0.00,WUHU21623XXSP,2013-01-09 18:18:00,
2013-01-09 13:23:00,57.0,47.2,0.00,North,0,0.0,0.0,70,0.00,,,0.00,WUHU21623XXSP,2013-01-09 18:23:00,
2013-01-09 13:28:00,57.0,47.3,0.00,North,0,0.0,0.0,70,0.00,,,0.00,WUHU21623XXSP,2013-01-09 18:28:00,
2013-01-09 13:33:00,57.6,47.8,0.00,North,0,0.0,0.0,70,0.00,,,0.00,WUHU21623XXSP,2013-01-09 18:33:00,
2013-01-09 13:38:00,57.9,47.8,0.00,North,0,0.0,0.0,69,0.00,,,0.00,WUHU21623XXSP,2013-01-09 18:38:00,
2013-01-09 13:41:00,57.9,47.8,0.00,North,0,0.0,0.0,69,0.00,,,0.00,WUHU21623XXSP,2013-01-09 18:41:00,
2013-01-09 13:42:00,57.9,47.8,0.00,North,0,0.0,0.0,69,0.00,,,0.00,WUHU21623XXSP,2013-01-09 18:42:00,
2013-01-09 13:44:00,57.9,47.8,0.00,North,0,0.0,0.0,69,0.00,,,0.00,WUHU21623XXSP,2013-01-09 18:44:00,
2013-01-09 13:45:00,58.1,47.8,0.00,North,0,0.0,0.0,69,0.00,,,0.00,WUHU21623XXSP,2013-01-09 18:45:00,
2013-01-09 13:48:00,58.1,48.0,0.00,North,0,0.0,0.0,69,0.00,,,0.00,WUHU21623XXSP,2013-01-09 18:48:00,
2013-01-09 13:53:00,58.3,47.7,0.00,North,0,0.0,0.0,68,0.00,,,0.00,WUHU21623XXSP,2013-01-09 18:53:00,
2013-01-09 13:58:00,58.5,47.9,0.00,North,0,0.0,0.0,68,0.00,,,0.00,WUHU21623XXSP,2013-01-09 18:58:00,
2013-01-09 14:03:00,58.5,47.9,0.00,North,0,0.0,0.0,68,0.00,,,0.00,WUHU21623XXSP,2013-01-09 19:03:00,
2013-01-09 14:08:00,58.5,47.9,0.00,North,0,0.0,0.0,68,0.00,,,0.00,WUHU21623XXSP,2013-01-09 19:08:00,
2013-01-09 14:13:00,58.3,47.7,0.00,North,0,0.0,0.0,68,0.00,,,0.00,WUHU21623XXSP,2013-01-09 19:13:00,
2013-01-09 14:18:00,58.3,47.7,0.00,North,0,0.0,0.0,68,0.00,,,0.00,WUHU21623XXSP,2013-01-09 19:18:00,
2013-01-09 14:23:00,58.3,47.7,0.00,North,0,0.0,0.0,68,0.00,,,0.00,WUHU21623XXSP,2013-01-09 19:23:00,
2013-01-09 14:28:00,58.3,47.7,0.00,North,0,0.0,0.0,68,0.00,,,0.00,WUHU21623XXSP,2013-01-09 19:28:00,
2013-01-09 14:33:00,58.5,47.7,0.00,North,0,0.0,0.0,68,0.00,,,0.00,WUHU21623XXSP,2013-01-09 19:33:00,
2013-01-09 14:38:00,58.3,47.7,0.00,North,0,0.0,0.0,68,0.00,,,0.00,WUHU21623XXSP,2013-01-09 19:38:00,
2013-01-09 14:43:00,58.3,47.7,0.00,North,0,0.0,0.0,68,0.00,,,0.00,WUHU21623XXSP,2013-01-09 19:43:00,
2013-01-09 14:48:00,58.3,47.7,0.00,North,0,0.0,0.0,68,0.00,,,0.00,WUHU21623XXSP,2013-01-09 19:48:00,
2013-01-09 14:53:00,58.5,47.9,0.00,North,0,0.0,0.0,68,0.00,,,0.00,WUHU21623XXSP,2013-01-09 19:53:00,
2013-01-09 14:58:00,58.5,47.9,0.00,North,0,0.0,0.0,68,0.00,,,0.00,WUHU21623XXSP,2013-01-09 19:58:00,
2013-01-09 15:03:00,58.6,48.1,0.00,North,0,0.0,0.0,68,0.00,,,0.00,WUHU21623XXSP,2013-01-09 20:03:00,
2013-01-09 15:08:00,58.6,48.1,0.00,North,0,0.0,0.0,68,0.00,,,0.00,WUHU21623XXSP,2013-01-09 20:08:00,
2013-01-09 15:13:00,58.6,48.1,0.00,North,0,0.0,0.0,68,0.00,,,0.00,WUHU21623XXSP,2013-01-09 20:13:00,
2013-01-09 15:18:00,58.6,48.1,0.00,North,0,0.0,0.0,68,0.00,,,0.00,WUHU21623XXSP,2013-01-09 20:18:00,
2013-01-09 15:23:00,58.6,48.1,0.00,North,0,0.0,0.0,68,0.00,,,0.00,WUHU21623XXSP,2013-01-09 20:23:00,
2013-01-09 15:28:00,58.8,48.3,0.00,North,0,0.0,0.0,68,0.00,,,0.00,WUHU21623XXSP,2013-01-09 20:28:00,
2013-01-09 15:33:00,58.8,47.9,0.00,North,0,0.0,0.0,67,0.00,,,0.00,WUHU21623XXSP,2013-01-09 20:33:00,
2013-01-09 15:38:00,58.6,47.7,0.00,North,0,0.0,0.0,67,0.00,,,0.00,WUHU21623XXSP,2013-01-09 20:38:00,
2013-01-09 15:43:00,58.6,47.7,0.00,North,0,0.0,0.0,67,0.00,,,0.00,WUHU21623XXSP,2013-01-09 20:43:00,
2013-01-09 15:48:00,58.6,47.7,0.00,North,0,0.0,0.0,67,0.00,,,0.00,WUHU21623XXSP,2013-01-09 20:48:00,
2013-01-09 15:53:00,58.6,47.7,0.00,North,0,0.0,0.0,67,0.00,,,0.00,WUHU21623XXSP,2013-01-09 20:53:00,
2013-01-09 15:58:00,58.8,47.9,0.00,North,0,0.0,0.0,67,0.00,,,0.00,WUHU21623XXSP,2013-01-09 20:58:00,
2013-01-09 16:03:00,58.8,47.9,0.00,North,0,0.0,0.0,67,0.00,,,0.00,WUHU21623XXSP,2013-01-09 21:03:00,
2013-01-09 16:08:00,58.8,47.9,0.00,North,0,0.0,0.0,67,0.00,,,0.00,WUHU21623XXSP,2013-01-09 21:08:00,
2013-01-09 16:13:00,58.8,47.9,0.00,North,0,0.0,0.0,67,0.00,,,0.00,WUHU21623XXSP,2013-01-09 21:13:00,
2013-01-09 16:18:00,58.8,47.9,0.00,North,0,0.0,0.0,67,0.00,,,0.00,WUHU21623XXSP,2013-01-09 21:18:00,
2013-01-09 16:23:00,58.8,47.9,0.00,North,0,0.0,0.0,67,0.00,,,0.00,WUHU21623XXSP,2013-01-09 21:23:00,
2013-01-09 16:28:00,58.8,47.9,0.00,North,0,0.0,0.0,67,0.00,,,0.00,WUHU21623XXSP,2013-01-09 21:28:00,
2013-01-09 16:33:00,58.8,47.9,0.00,North,0,0.0,0.0,67,0.00,,,0.00,WUHU21623XXSP,2013-01-09 21:33:00,
2013-01-09 16:38:00,58.8,47.4,0.00,North,0,0.0,0.0,66,0.00,,,0.00,WUHU21623XXSP,2013-01-09 21:38:00,
2013-01-09 16:43:00,58.8,47.4,0.00,North,0,0.0,0.0,66,0.00,,,0.00,WUHU21623XXSP,2013-01-09 21:43:00,
2013-01-09 16:48:00,58.8,47.4,0.00,North,0,0.0,0.0,66,0.00,,,0.00,WUHU21623XXSP,2013-01-09 21:48:00,
2013-01-09 16:53:00,58.8,47.4,0.00,North,0,0.0,0.0,66,0.00,,,0.00,WUHU21623XXSP,2013-01-09 21:53:00,
2013-01-09 16:58:00,58.8,47.4,0.00,North,0,0.0,0.0,66,0.00,,,0.00,WUHU21623XXSP,2013-01-09 21:58:00,
2013-01-09 17:03:00,58.8,47.4,0.00,North,0,0.0,0.0,66,0.00,,,0.00,WUHU21623XXSP,2013-01-09 22:03:00,
2013-01-09 17:08:00,58.8,47.4,0.00,North,0,0.0,0.0,66,0.00,,,0.00,WUHU21623XXSP,2013-01-09 22:08:00,
2013-01-09 17:13:00,58.8,47.4,0.00,North,0,0.0,0.0,66,0.00,,,0.00,WUHU21623XXSP,2013-01-09 22:13:00,
2013-01-09 17:18:00,58.8,47.4,0.00,North,0,0.0,0.0,66,0.00,,,0.00,WUHU21623XXSP,2013-01-09 22:18:00,
2013-01-09 17:23:00,58.8,47.4,0.00,North,0,0.0,0.0,66,0.00,,,0.00,WUHU21623XXSP,2013-01-09 22:23:00,
2013-01-09 17:28:00,58.8,47.4,0.00,North,0,0.0,0.0,66,0.00,,,0.00,WUHU21623XXSP,2013-01-09 22:28:00,
2013-01-09 17:33:00,58.8,47.4,0.00,North,0,0.0,0.0,66,0.00,,,0.00,WUHU21623XXSP,2013-01-09 22:33:00,
2013-01-09 17:38:00,58.8,47.4,0.00,North,0,0.0,0.0,66,0.00,,,0.00,WUHU21623XXSP,2013-01-09 22:38:00,
2013-01-09 17:43:00,58.6,47.3,0.00,North,0,0.0,0.0,66,0.00,,,0.00,WUHU21623XXSP,2013-01-09 22:43:00,
2013-01-09 17:48:00,58.6,47.3,0.00,North,0,0.0,0.0,66,0.00,,,0.00,WUHU21623XXSP,2013-01-09 22:48:00,
2013-01-09 17:53:00,58.6,47.3,0.00,North,0,0.0,0.0,66,0.00,,,0.00,WUHU21623XXSP,2013-01-09 22:53:00,
2013-01-09 17:58:00,58.5,47.1,0.00,North,0,0.0,0.0,66,0.00,,,0.00,WUHU21623XXSP,2013-01-09 22:58:00,
2013-01-09 18:03:00,58.5,47.1,0.00,North,0,0.0,0.0,66,0.00,,,0.00,WUHU21623XXSP,2013-01-09 23:03:00,
2013-01-09 18:08:00,58.3,46.9,0.00,North,0,0.0,0.0,66,0.00,,,0.00,WUHU21623XXSP,2013-01-09 23:08:00,
2013-01-09 18:13:00,58.3,46.9,0.00,North,0,0.0,0.0,66,0.00,,,0.00,WUHU21623XXSP,2013-01-09 23:13:00,
2013-01-09 18:18:00,58.1,46.8,0.00,North,0,0.0,0.0,66,0.00,,,0.00,WUHU21623XXSP,2013-01-09 23:18:00,
2013-01-09 18:23:00,57.9,46.6,0.00,North,0,0.0,0.0,66,0.00,,,0.00,WUHU21623XXSP,2013-01-09 23:23:00,
2013-01-09 18:28:00,57.9,46.6,0.00,North,0,0.0,0.0,66,0.00,,,0.00,WUHU21623XXSP,2013-01-09 23:28:00,
2013-01-09 18:33:00,57.7,46.8,0.00,North,0,0.0,0.0,67,0.00,,,0.00,WUHU21623XXSP,2013-01-09 23:33:00,
2013-01-09 18:38:00,57.6,46.6,0.00,North,0,0.0,0.0,67,0.00,,,0.00,WUHU21623XXSP,2013-01-09 23:38:00,
2013-01-09 18:43:00,57.4,46.5,0.00,North,0,0.0,0.0,67,0.00,,,0.00,WUHU21623XXSP,2013-01-09 23:43:00,
2013-01-09 18:48:00,57.0,46.1,0.00,North,0,0.0,0.0,67,0.00,,,0.00,WUHU21623XXSP,2013-01-09 23:48:00,
2013-01-09 18:53:00,57.0,46.1,0.00,North,0,0.0,0.0,67,0.00,,,0.00,WUHU21623XXSP,2013-01-09 23:53:00,
2013-01-09 18:58:00,57.0,46.1,0.00,North,0,0.0,0.0,67,0.00,,,0.00,WUHU21623XXSP,2013-01-09 23:58:00,
2013-01-09 19:03:00,56.8,46.0,0.00,North,0,0.0,0.0,67,0.00,,,0.00,WUHU21623XXSP,2013-01-10 00:03:00,
2013-01-09 19:08:00,56.8,46.0,0.00,North,0,0.0,0.0,67,0.00,,,0.00,WUHU21623XXSP,2013-01-10 00:08:00,
2013-01-09 19:13:00,57.0,46.1,0.00,North,0,0.0,0.0,67,0.00,,,0.00,WUHU21623XXSP,2013-01-10 00:13:00,
2013-01-09 19:18:00,57.0,46.1,0.00,North,0,0.0,0.0,67,0.00,,,0.00,WUHU21623XXSP,2013-01-10 00:18:00,
2013-01-09 19:23:00,57.0,46.1,0.00,North,0,0.0,0.0,67,0.00,,,0.00,WUHU21623XXSP,2013-01-10 00:23:00,
2013-01-09 19:28:00,57.0,46.1,0.00,North,0,0.0,0.0,67,0.00,,,0.00,WUHU21623XXSP,2013-01-10 00:28:00,
2013-01-09 19:33:00,57.0,46.5,0.00,North,0,0.0,0.0,68,0.00,,,0.00,WUHU21623XXSP,2013-01-10 00:33:00,
2013-01-09 19:38:00,56.8,46.3,0.00,North,0,0.0,0.0,68,0.00,,,0.00,WUHU21623XXSP,2013-01-10 00:38:00,
2013-01-09 19:43:00,56.5,46.0,0.00,North,0,0.0,0.0,68,0.00,,,0.00,WUHU21623XXSP,2013-01-10 00:43:00,
2013-01-09 19:48:00,56.5,46.0,0.00,North,0,0.0,0.0,68,0.00,,,0.00,WUHU21623XXSP,2013-01-10 00:48:00,
2013-01-09 19:53:00,56.1,45.9,0.00,North,0,0.0,0.0,68,0.00,,,0.00,WUHU21623XXSP,2013-01-10 00:53:00,
2013-01-09 19:58:00,55.6,45.2,0.00,North,0,0.0,0.0,68,0.00,,,0.00,WUHU21623XXSP,2013-01-10 00:58:00,
2013-01-09 20:03:00,55.2,44.9,0.00,North,0,0.0,0.0,68,0.00,,,0.00,WUHU21623XXSP,2013-01-10 01:03:00,
2013-01-09 20:08:00,54.9,44.7,0.00,North,0,0.0,0.0,68,0.00,,,0.00,WUHU21623XXSP,2013-01-10 01:08:00,
2013-01-09 20:13:00,54.3,44.0,0.00,North,0,0.0,0.0,68,0.00,,,0.00,WUHU21623XXSP,2013-01-10 01:13:00,
2013-01-09 20:19:00,54.0,43.8,0.00,North,0,0.0,0.0,68,0.00,,,0.00,WUHU21623XXSP,2013-01-10 01:19:00,
2013-01-09 20:24:00,53.8,43.8,0.00,North,0,0.0,0.0,69,0.00,,,0.00,WUHU21623XXSP,2013-01-10 01:24:00,
2013-01-09 20:29:00,53.4,43.9,0.00,North,0,0.0,0.0,70,0.00,,,0.00,WUHU21623XXSP,2013-01-10 01:29:00,
2013-01-09 20:34:00,53.2,43.7,0.00,North,0,0.0,0.0,70,0.00,,,0.00,WUHU21623XXSP,2013-01-10 01:34:00,
2013-01-09 20:39:00,52.9,43.7,0.00,North,0,0.0,0.0,70,0.00,,,0.00,WUHU21623XXSP,2013-01-10 01:39:00,
2013-01-09 20:44:00,52.5,43.1,0.00,North,0,0.0,0.0,70,0.00,,,0.00,WUHU21623XXSP,2013-01-10 01:44:00,
2013-01-09 20:49:00,52.3,42.9,0.00,North,0,0.0,0.0,70,0.00,,,0.00,WUHU21623XXSP,2013-01-10 01:49:00,
2013-01-09 20:54:00,52.3,42.9,0.00,North,0,0.0,0.0,70,0.00,,,0.00,WUHU21623XXSP,2013-01-10 01:54:00,
2013-01-09 20:58:00,52.2,43.1,0.00,North,0,0.0,0.0,71,0.00,,,0.00,WUHU21623XXSP,2013-01-10 01:58:00,
2013-01-09 21:03:00,52.2,43.4,0.00,North,0,0.0,0.0,72,0.00,,,0.00,WUHU21623XXSP,2013-01-10 02:03:00,
2013-01-09 21:08:00,52.2,43.4,0.00,North,0,0.0,0.0,72,0.00,,,0.00,WUHU21623XXSP,2013-01-10 02:08:00,
2013-01-09 21:13:00,52.3,43.6,0.00,North,0,0.0,0.0,72,0.00,,,0.00,WUHU21623XXSP,2013-01-10 02:13:00,
2013-01-09 21:18:00,52.2,43.8,0.00,North,0,0.0,0.0,73,0.00,,,0.00,WUHU21623XXSP,2013-01-10 02:18:00,
2013-01-09 21:23:00,52.3,44.0,0.00,North,0,0.0,0.0,73,0.00,,,0.00,WUHU21623XXSP,2013-01-10 02:23:00,
2013-01-09 21:28:00,52.3,44.0,0.00,North,0,0.0,0.0,73,0.00,,,0.00,WUHU21623XXSP,2013-01-10 02:28:00,
2013-01-09 21:34:00,52.5,44.0,0.00,North,0,0.0,0.0,73,0.00,,,0.00,WUHU21623XXSP,2013-01-10 02:34:00,
2013-01-09 21:39:00,52.5,44.1,0.00,North,0,0.0,0.0,73,0.00,,,0.00,WUHU21623XXSP,2013-01-10 02:39:00,
2013-01-09 21:43:00,52.5,44.1,0.00,North,0,0.0,0.0,73,0.00,,,0.00,WUHU21623XXSP,2013-01-10 02:43:00,
2013-01-09 21:48:00,52.7,44.3,0.00,North,0,0.0,0.0,73,0.00,,,0.00,WUHU21623XXSP,2013-01-10 02:48:00,
2013-01-09 21:54:00,52.9,44.5,0.00,North,0,0.0,0.0,73,0.00,,,0.00,WUHU21623XXSP,2013-01-10 02:54:00,
2013-01-09 21:59:00,53.2,44.6,0.00,North,0,0.0,0.0,73,0.00,,,0.00,WUHU21623XXSP,2013-01-10 02:59:00,
2013-01-09 22:04:00,53.2,44.8,0.00,North,0,0.0,0.0,73,0.00,,,0.00,WUHU21623XXSP,2013-01-10 03:04:00,
2013-01-09 22:09:00,53.4,45.0,0.00,North,0,0.0,0.0,73,0.00,,,0.00,WUHU21623XXSP,2013-01-10 03:09:00,
2013-01-09 22:13:00,53.4,44.6,0.00,North,0,0.0,0.0,72,0.00,,,0.00,WUHU21623XXSP,2013-01-10 03:13:00,
2013-01-09 22:18:00,53.4,44.6,0.00,North,0,0.0,0.0,72,0.00,,,0.00,WUHU21623XXSP,2013-01-10 03:18:00,
2013-01-09 22:23:00,53.2,44.4,0.00,North,0,0.0,0.0,72,0.00,,,0.00,WUHU21623XXSP,2013-01-10 03:23:00,
2013-01-09 22:28:00,52.7,44.0,0.00,North,0,0.0,0.0,72,0.00,,,0.00,WUHU21623XXSP,2013-01-10 03:28:00,
2013-01-09 22:33:00,52.3,43.6,0.00,North,0,0.0,0.0,72,0.00,,,0.00,WUHU21623XXSP,2013-01-10 03:33:00,
2013-01-09 22:38:00,52.2,43.4,0.00,North,0,0.0,0.0,72,0.00,,,0.00,WUHU21623XXSP,2013-01-10 03:38:00,
2013-01-09 22:43:00,51.6,42.9,0.00,North,0,0.0,0.0,72,0.00,,,0.00,WUHU21623XXSP,2013-01-10 03:43:00,
2013-01-09 22:48:00,51.1,42.4,0.00,North,0,0.0,0.0,72,0.00,,,0.00,WUHU21623XXSP,2013-01-10 03:48:00,
2013-01-09 22:53:00,50.7,42.2,0.00,North,0,0.0,0.0,72,0.00,,,0.00,WUHU21623XXSP,2013-01-10 03:53:00,
2013-01-09 22:58:00,50.4,42.0,0.00,North,0,0.0,0.0,73,0.00,,,0.00,WUHU21623XXSP,2013-01-10 03:58:00,
2013-01-09 23:03:00,50.2,41.8,0.00,North,0,0.0,0.0,73,0.00,,,0.00,WUHU21623XXSP,2013-01-10 04:03:00,
2013-01-09 23:08:00,49.8,41.8,0.00,North,0,0.0,0.0,74,0.00,,,0.00,WUHU21623XXSP,2013-01-10 04:08:00,
2013-01-09 23:13:00,49.8,41.8,0.00,North,0,0.0,0.0,74,0.00,,,0.00,WUHU21623XXSP,2013-01-10 04:13:00,
2013-01-09 23:18:00,49.8,41.8,0.00,North,0,0.0,0.0,74,0.00,,,0.00,WUHU21623XXSP,2013-01-10 04:18:00,
2013-01-09 23:23:00,49.6,41.6,0.00,North,0,0.0,0.0,74,0.00,,,0.00,WUHU21623XXSP,2013-01-10 04:23:00,
2013-01-09 23:28:00,49.8,42.2,0.00,North,0,0.0,0.0,75,0.00,,,0.00,WUHU21623XXSP,2013-01-10 04:28:00,
2013-01-09 23:33:00,49.8,42.2,0.00,North,0,0.0,0.0,75,0.00,,,0.00,WUHU21623XXSP,2013-01-10 04:33:00,
2013-01-09 23:38:00,49.8,42.2,0.00,North,0,0.0,0.0,75,0.00,,,0.00,WUHU21623XXSP,2013-01-10 04:38:00,
2013-01-09 23:43:00,49.8,42.2,0.00,North,0,0.0,0.0,74,0.00,,,0.00,WUHU21623XXSP,2013-01-10 04:43:00,
2013-01-09 23:48:00,49.6,42.0,0.00,North,0,0.0,0.0,75,0.00,,,0.00,WUHU21623XXSP,2013-01-10 04:48:00,
2013-01-09 23:53:00,49.3,41.6,0.00,North,0,0.0,0.0,75,0.00,,,0.00,WUHU21623XXSP,2013-01-10 04:53:00,
2013-01-09 23:58:00,49.1,41.5,0.00,North,0,0.0,0.0,75,0.00,,,0.00,WUHU21623XXSP,2013-01-10 04:58:00,